WA6MEM Weather Reports


time (UTC)temp
C
wind
direction
speed
KPH
gust
KPH
rain 1hr
cm
rain 24hr
cm
rain mn
cm
humidity
%
barometer
mb
20260503013517 13 162 6.4 0.0 0.00 0.00 0.00 89 1009.5
20260503013021 14 187 6.4 0.0 0.00 0.00 0.00 88 1009.5
20260503012517 14 207 6.4 0.0 0.00 0.00 0.00 88 1009.4
20260503012017 14 200 6.4 0.0 0.00 0.00 0.00 88 1009.4
20260503011521 15 178 6.4 0.0 0.00 0.00 0.00 87 1009.4
20260503011016 15 197 6.4 0.0 0.00 0.00 0.00 87 1009.3
20260503010517 15 195 4.8 0.0 0.00 0.00 0.00 86 1009.3
20260503010020 15 167 4.8 0.0 0.00 0.00 0.00 86 1009.3
20260503005515 15 160 6.4 0.0 0.00 0.00 0.00 85 1009.3
20260503005015 15 171 6.4 0.0 0.00 0.00 0.00 86 1009.3
20260503004517 15 186 6.4 0.0 0.00 0.00 0.00 86 1009.3
20260503004014 15 182 4.8 0.0 0.00 0.00 0.00 85 1009.3
20260503003515 15 163 4.8 0.0 0.00 0.00 0.00 84 1009.3
20260503003014 15 182 4.8 0.0 0.00 0.00 0.00 84 1009.3
20260503002517 15 360 4.8 0.0 0.00 0.00 0.00 84 1009.4
20260503002017 15 202 6.4 0.0 0.00 0.00 0.00 84 1009.4
20260503001513 15 199 6.4 0.0 0.00 0.00 0.00 84 1009.4
20260503001014 15 219 4.8 0.0 0.00 0.00 0.00 84 1009.5
20260503000513 15 360 4.8 0.0 0.00 0.00 0.00 85 1009.5
20260503000013 15 216 6.4 0.0 0.00 0.00 0.00 85 1009.5
20260502235513 15 169 6.4 0.0 0.00 0.00 0.00 85 1009.5
20260502235013 15 158 6.4 0.0 0.00 0.00 0.00 85 1009.5
20260502234522 15 218 8.0 0.0 0.00 0.00 0.00 84 1009.5
20260502234012 15 227 6.4 0.0 0.00 0.00 0.00 84 1009.6
20260502233513 15 202 6.4 0.0 0.00 0.00 0.00 84 1009.6
20260502233014 15 199 6.4 0.0 0.00 0.00 0.00 83 1009.6
20260502232512 15 197 6.4 0.0 0.00 0.00 0.00 84 1009.6
20260502232011 15 188 6.4 0.0 0.00 0.00 0.00 83 1009.6
20260502231511 15 163 6.4 0.0 0.00 0.00 0.00 84 1009.6
20260502231011 15 206 8.0 0.0 0.00 0.00 0.00 84 1009.9
20260502230511 15 207 6.4 0.0 0.00 0.00 0.00 84 1009.9
20260502230011 15 202 6.4 0.0 0.00 0.00 0.00 84 1009.9
20260502225509 15 176 6.4 0.0 0.00 0.00 0.00 85 1009.7
20260502225010 15 154 4.8 0.0 0.00 0.00 0.00 86 1009.7
20260502224509 15 180 6.4 0.0 0.00 0.00 0.00 87 1009.7
20260502224009 15 194 8.0 0.0 0.00 0.00 0.00 87 1010.4
20260502223509 15 178 9.7 0.0 0.00 0.00 0.00 87 1010.4
20260502223009 15 175 8.0 0.0 0.00 0.00 0.00 86 1010.4
20260502222508 15 189 9.7 0.0 0.00 0.00 0.00 85 1010.8
20260502222007 15 198 8.0 0.0 0.00 0.00 0.00 86 1010.8
20260502221507 15 216 8.0 0.0 0.00 0.00 0.00 86 1010.8
20260502221007 15 193 8.0 0.0 0.00 0.00 0.00 86 1011.1
20260502220507 15 148 8.0 0.0 0.00 0.00 0.00 87 1011.1
20260502220011 15 201 9.7 0.0 0.00 0.00 0.00 87 1011.1
20260502215507 15 197 11.3 0.0 0.00 0.00 0.00 87 1011.2
20260502215007 15 152 11.3 0.0 0.00 0.00 0.00 87 1011.2
20260502214517 15 180 9.7 0.0 0.00 0.00 0.00 86 1011.2
20260502214006 15 193 9.7 0.0 0.00 0.00 0.00 86 1011.5
20260502213506 15 200 9.7 0.0 0.00 0.00 0.00 86 1011.5
20260502213006 15 196 9.7 0.0 0.00 0.00 0.00 87 1011.5
20260502212505 15 189 8.0 0.0 0.00 0.00 0.00 87 1011.6
20260502212004 15 189 8.0 0.0 0.00 0.00 0.00 88 1011.6
20260502211507 15 221 8.0 0.0 0.00 0.00 0.00 89 1011.6
20260502211001 15 200 6.4 0.0 0.00 0.00 0.00 89 1011.8
20260502210500 15 221 6.4 0.0 0.00 0.00 0.00 90 1011.8
20260502205559 14 218 8.0 0.0 0.00 0.00 0.00 91 1012.1
20260502205059 14 170 8.0 0.0 0.00 0.00 0.00 92 1012.1
20260502204617 14 230 6.4 0.0 0.00 0.00 0.00 92 1012.1
20260502204059 14 215 6.4 0.0 0.00 0.00 0.00 93 1012.0
20260502203557 14 218 6.4 0.0 0.00 0.00 0.00 93 1012.0
20260502203057 14 207 6.4 0.0 0.00 0.00 0.00 94 1012.0
20260502202559 14 166 6.4 0.0 0.00 0.00 0.00 94 1012.2
20260502202054 13 210 4.8 0.0 0.00 0.00 0.00 95 1012.2
20260502201554 13 188 4.8 0.0 0.00 0.00 0.00 95 1012.2
20260502201053 13 163 4.8 0.0 0.00 0.00 0.00 95 1012.3
20260502200553 13 184 4.8 0.0 0.00 0.00 0.00 95 1012.3
20260502200056 13 191 4.8 0.0 0.00 0.00 0.00 95 1012.3
20260502195553 13 184 4.8 0.0 0.00 0.00 0.00 95 1012.5
20260502195053 13 216 3.2 0.0 0.00 0.00 0.00 96 1012.5
20260502194553 13 192 3.2 0.0 0.00 0.00 0.00 96 1012.5
20260502194057 13 182 3.2 0.0 0.00 0.00 0.00 96 1012.8
20260502193552 13 169 4.8 0.0 0.00 0.00 0.00 96 1012.8
20260502193054 13 209 4.8 0.0 0.00 0.00 0.00 96 1012.8
20260502192550 13 160 4.8 0.0 0.00 0.00 0.00 96 1013.0
20260502192051 13 206 4.8 0.0 0.00 0.00 0.00 96 1013.0
20260502191551 13 184 3.2 0.0 0.00 0.00 0.00 96 1013.0
20260502191049 13 196 1.6 0.0 0.00 0.00 0.00 96 1013.0
20260502190549 13 238 1.6 0.0 0.00 0.00 0.00 96 1013.0
20260502190049 12 182 3.2 0.0 0.00 0.00 0.00 96 1013.0
20260502185548 12 213 3.2 0.0 0.00 0.00 0.00 96 1013.5
20260502185049 12 209 3.2 0.0 0.00 0.00 0.00 96 1013.5
20260502184556 12 235 3.2 0.0 0.00 0.00 0.00 96 1013.5
20260502184053 12 257 3.2 0.0 0.00 0.00 0.00 96 1013.5
20260502183548 12 219 3.2 0.0 0.00 0.00 0.00 96 1013.5
20260502183048 12 165 3.2 0.0 0.00 0.00 0.00 96 1013.5
20260502182547 12 171 3.2 0.0 0.00 0.00 0.00 96 1013.4
20260502182050 12 164 3.2 0.0 0.00 0.00 0.00 96 1013.4
20260502181547 12 146 4.8 0.0 0.00 0.00 0.00 96 1013.4
20260502181049 12 188 3.2 0.0 0.00 0.00 0.00 96 1013.5
20260502180548 13 130 1.6 0.0 0.00 0.00 0.00 96 1013.5
20260502164040 12 178 1.6 0.0 0.00 0.00 0.00 96 1013.8
20260502163541 12 205 3.2 0.0 0.00 0.00 0.00 96 1013.8
20260502163040 12 156 1.6 0.0 0.00 0.00 0.00 96 1013.8
20260502162543 12 173 1.6 0.0 0.00 0.00 0.00 96 1013.6
20260502162039 12 135 1.6 0.0 0.00 0.00 0.00 96 1013.6
20260502161539 12 125 1.6 0.0 0.00 0.00 0.00 96 1013.6
20260502161039 12 132 1.6 0.0 0.00 0.00 0.00 96 1013.8
20260502160541 12 179 0.0 0.0 0.00 0.00 0.00 96 1013.8
20260502152038 12 143 0.0 0.0 0.00 0.00 0.00 96 1013.4
20260502151536 12 143 1.6 0.0 0.00 0.00 0.00 96 1013.4
20260502151037 12 146 1.6 0.0 0.00 0.00 0.00 96 1013.4
20260502150536 12 134 0.0 0.0 0.00 0.00 0.00 96 1013.4
20260502130530 11 267 0.0 0.0 0.00 0.00 0.00 95 1012.4
20260502123532 12 174 3.2 0.0 0.00 0.00 0.00 96 1012.4
20260502123031 12 201 3.2 0.0 0.00 0.00 0.00 96 1012.4
20260502122528 12 171 3.2 0.0 0.00 0.00 0.00 96 1012.2
20260502122028 12 165 1.6 0.0 0.00 0.00 0.00 96 1012.2
20260502121538 12 196 1.6 0.0 0.00 0.00 0.00 96 1012.2
20260502121028 11 194 3.2 0.0 0.00 0.00 0.00 96 1012.0
20260502120528 11 189 3.2 0.0 0.00 0.00 0.00 95 1012.0
20260502115527 12 173 3.2 0.0 0.00 0.00 0.00 96 1011.9
20260502115027 12 159 3.2 0.0 0.00 0.00 0.00 96 1011.9
20260502114527 12 163 3.2 0.0 0.00 0.00 0.00 95 1011.9
20260502114027 12 200 3.2 0.0 0.00 0.00 0.00 95 1011.7
20260502113527 12 195 3.2 0.0 0.00 0.00 0.00 95 1011.7
20260502113026 12 184 3.2 0.0 0.00 0.00 0.00 95 1011.7
20260502112526 12 183 1.6 0.0 0.00 0.00 0.00 95 1011.7
20260502112025 12 196 1.6 0.0 0.00 0.00 0.00 95 1011.7
20260502111526 11 181 1.6 0.0 0.00 0.00 0.00 95 1011.7
20260502111025 11 213 1.6 0.0 0.00 0.00 0.00 95 1011.6
20260502110525 11 144 1.6 0.0 0.00 0.00 0.00 95 1011.6
20260502110032 11 167 3.2 0.0 0.00 0.00 0.00 95 1011.6
20260502105525 11 206 3.2 0.0 0.00 0.00 0.00 95 1011.5
20260502105025 11 194 3.2 0.0 0.00 0.00 0.00 95 1011.5
20260502104524 11 198 1.6 0.0 0.00 0.00 0.00 95 1011.5
20260502104024 11 196 1.6 0.0 0.00 0.00 0.00 95 1011.5
20260502103524 11 224 1.6 0.0 0.00 0.00 0.00 95 1011.5
20260502103024 11 159 0.0 0.0 0.00 0.00 0.00 95 1011.5
20260502102523 11 206 1.6 0.0 0.00 0.00 0.00 95 1011.5
20260502102023 11 193 1.6 0.0 0.00 0.00 0.00 95 1011.5
20260502101523 12 177 1.6 0.0 0.00 0.00 0.00 95 1011.5
20260502101023 12 178 1.6 0.0 0.00 0.00 0.00 95 1011.4
20260502100523 12 198 1.6 0.0 0.00 0.00 0.00 95 1011.4
20260502091520 12 193 1.6 0.0 0.00 0.00 0.00 95 1011.5
20260502091020 12 177 1.6 0.0 0.00 0.00 0.00 95 1011.8
20260502090519 12 171 1.6 0.0 0.00 0.00 0.00 95 1011.8
20260502071515 12 185 1.6 0.0 0.00 0.00 0.00 95 1012.4
20260502071012 12 196 0.0 0.0 0.00 0.00 0.00 95 1012.5
20260502070513 12 177 0.0 0.0 0.00 0.00 0.00 95 1012.5
20260502070020 12 172 0.0 0.0 0.00 0.00 0.00 95 1012.5
20260502065513 12 172 1.6 0.0 0.00 0.00 0.00 95 1012.4
20260502065015 12 172 1.6 0.0 0.00 0.00 0.00 95 1012.4
20260502064513 12 196 0.0 0.0 0.00 0.00 0.00 95 1012.4
20260502064011 12 188 0.0 0.0 0.00 0.00 0.00 95 1012.5
20260502063512 12 188 1.6 0.0 0.00 0.00 0.00 95 1012.5
20260502063021 12 186 1.6 0.0 0.00 0.00 0.00 95 1012.5
20260502062511 12 193 0.0 0.0 0.00 0.00 0.00 95 1012.3
20260502062010 12 193 0.0 0.0 0.00 0.00 0.00 95 1012.3
20260502061510 11 192 0.0 0.0 0.00 0.00 0.00 95 1012.3
20260502061010 11 200 0.0 0.0 0.00 0.00 0.00 95 1012.4
20260502060510 12 200 1.6 0.0 0.00 0.00 0.00 95 1012.4
20260502060017 12 196 0.0 0.0 0.00 0.00 0.00 95 1012.4
20260502055510 12 200 0.0 0.0 0.00 0.00 0.00 95 1012.3
20260502055010 12 200 0.0 0.0 0.00 0.00 0.00 95 1012.3
20260502054520 12 200 0.0 0.0 0.00 0.00 0.00 95 1012.3
20260502054009 12 200 0.0 0.0 0.00 0.00 0.00 95 1012.4
20260502053509 12 200 1.6 0.0 0.00 0.00 0.00 95 1012.4
20260502053009 12 173 1.6 0.0 0.00 0.00 0.00 95 1012.4
20260502052509 12 173 1.6 0.0 0.00 0.00 0.00 95 1012.5
20260502052010 12 159 1.6 0.0 0.00 0.00 0.00 94 1012.5
20260502051509 12 198 3.2 0.0 0.00 0.00 0.00 94 1012.5
20260502051008 12 215 3.2 0.0 0.00 0.00 0.00 94 1012.5
20260502050508 12 170 1.6 0.0 0.00 0.00 0.00 94 1012.5
20260502050011 12 167 1.6 0.0 0.00 0.00 0.00 94 1012.5
20260502045508 12 192 1.6 0.0 0.00 0.00 0.00 94 1012.4
20260502045008 12 167 3.2 0.0 0.00 0.00 0.00 94 1012.4
20260502044507 12 171 3.2 0.0 0.00 0.00 0.00 95 1012.4
20260502044008 12 182 1.6 0.0 0.00 0.00 0.00 94 1012.3
20260502043508 12 244 1.6 0.0 0.00 0.00 0.00 94 1012.3
20260502043008 12 234 1.6 0.0 0.00 0.00 0.00 94 1012.3
20260502042508 12 190 0.0 0.0 0.00 0.00 0.00 94 1012.1
20260502042008 12 144 0.0 0.0 0.00 0.00 0.00 94 1012.1
20260502041507 12 144 0.0 0.0 0.00 0.00 0.00 94 1012.1
20260502041006 12 223 1.6 0.0 0.00 0.00 0.00 94 1011.8
20260502040506 12 268 3.2 0.0 0.00 0.00 0.00 94 1011.8
20260502040009 12 199 3.2 0.0 0.00 0.00 0.00 94 1011.8
20260502035507 12 168 3.2 0.0 0.00 0.00 0.00 94 1011.7
20260502035006 12 169 4.8 0.0 0.00 0.00 0.00 94 1011.7
20260502034506 12 202 4.8 0.0 0.00 0.00 0.00 94 1011.7
20260502034007 12 187 4.8 0.0 0.00 0.00 0.00 94 1011.3
20260502033509 12 218 4.8 0.0 0.00 0.00 0.00 94 1011.3
20260502033008 12 165 6.4 0.0 0.00 0.00 0.00 94 1011.3
20260502032506 12 220 8.0 0.0 0.00 0.00 0.00 94 1011.2
20260502032005 12 165 6.4 0.0 0.00 0.00 0.00 94 1011.2
20260502031505 12 190 4.8 0.0 0.00 0.00 0.00 94 1011.2
20260502031005 12 172 4.8 0.0 0.00 0.00 0.00 94 1011.1
20260502030505 12 236 6.4 0.0 0.00 0.00 0.00 94 1011.1
20260502030006 12 233 8.0 0.0 0.00 0.00 0.00 94 1011.1
20260502025504 13 254 8.0 0.0 0.00 0.00 0.00 94 1011.3
20260502025004 13 232 6.4 0.0 0.00 0.00 0.00 94 1011.3
20260502024505 13 286 4.8 0.0 0.00 0.00 0.00 94 1011.3
20260502024007 13 226 4.8 0.0 0.00 0.00 0.00 94 1011.2
20260502023504 13 237 6.4 0.0 0.00 0.00 0.00 94 1011.2
20260502023004 13 208 4.8 0.0 0.00 0.00 0.00 94 1011.2
20260502022504 13 224 6.4 0.0 0.00 0.00 0.00 93 1011.2
20260502022007 13 213 6.4 0.0 0.00 0.00 0.00 93 1011.2
20260502021506 13 221 6.4 0.0 0.00 0.00 0.00 93 1011.2
20260502021006 13 211 4.8 0.0 0.00 0.00 0.00 93 1010.8
20260502020507 13 209 6.4 0.0 0.00 0.00 0.00 93 1010.8
20260502020003 13 187 6.4 0.0 0.00 0.00 0.00 93 1010.8
20260502015503 13 246 6.4 0.0 0.00 0.00 0.00 93 1010.8
20260502015003 13 182 8.0 0.0 0.00 0.00 0.00 93 1010.8
20260502014503 13 228 8.0 0.0 0.00 0.00 0.00 92 1010.8
20260502014002 13 161 6.4 0.0 0.00 0.00 0.00 92 1010.8